星链-31325 (STARLINK-31325 )

导读

STARLINK-31325是美国太空探索技术公司SpaceX星链互联网卫星星座的一员,于2024年3月4日发射入轨,隶属于星链项目低轨卫星组网部署。星链系统旨在为全球提供高速互联网接入服务,该卫星加入后进一步扩充了星链星座规模,提升星座的覆盖密度与服务稳定性,支撑全球尤其是偏远地区的互联网接入能力建设。

基本信息
目录编号:
59165
目录名称:
STARLINK-31325
国际标识:
2024-044P
轨道中心:
EARTH
卫星名称:
星链-31325
卫星全名:
星链-31325 (STARLINK-31325 )
卫星状态:
在轨 (已飞行836 天)
发射日期:
2024-03-04 UTC
国别 :
美国 (US)
星等 :
--
轨道信息
数据来源 国际轨道数据
星历时间: 2026-06-17T07:45:38+0800
1天前
查看轨道信息
半长轴: 6861.197km
偏心率: 0.0000411
轨道倾角: 43.000°
近地点辐角 319.977°
升交点赤经 266.118°
平近点角 40.105°
近地点: 482.778km
远地点: 483.342km
周期: 94.267分钟
每日圈数: 15.275764
详细信息
固有亮度:
5
最大亮度:
0.3
卫星平台:
Starlink v2.0 mini
覆盖范围:
全球
运营商:
太空探索技术公司
运营商所在国:
美国
制造商(研发单位):
太空探索技术公司
制造商所在国:
美国
使用方式:
暂无
卫星简介
星链(Starlink)计划是由太空探索技术公司(SpaceX)提出的一个巨型低轨卫星互联网星座项目,计划在2019年至2024年间在太空搭建由约1.2万颗卫星组成的“星链”网络,其中1584颗将部署在地球上空550千米处的近地轨道,并从2020年开始工作。该卫星仍在工作。
2D轨道图
3D轨道图
轨道高度分析图
轨道倾角分析图
轨道综合分析图
查看轨道综合分析图